Location: Unspecified
(0.0000°N, 0.0000°E)
Time: 11:13:33
(UTC+00:00)

A-11 Canister half - Pass Details

Date: 28 November 2019
Orbit: 1515 x 1685 km, 47.2° (Epoch: 13 December)

Event Time Altitude Azimuth Distance (km) Brightness Sun altitude
Rises 10:14:55 0° 193° (SSW) 4,669 11.8 58.9°
Reaches altitude 10° 10:19:06 10° 176° (S) 3,702 11.5 59.6°
Maximum altitude 10:25:28 20° 132° (SE) 3,013 11.5 60.7°
Drops below altitude 10° 10:31:54 10° 89° (E) 3,774 11.5 61.8°
Sets 10:36:10 0° 73° (ENE) 4,789 11.7 62.4°
